Back to catalog

CZ-4 DEB

AliveSSO
NORAD 20853·DEBRIS·🇨🇳 China

Launched Sep 3, 1990 from Taiyuan Satellite Launch Center

Loading…

Next Passes (next 24 hours)

TLE

FreshSource: Space-Track

Epoch: Sep 14, 2026, 12:08 UTC

1 20853U 90081R   26257.50624105  .00005920  00000-0  10097-2 0  9996
2 20853  98.2425 267.8715 0014576   0.9537 151.6942 14.69291655871511

Track CZ-4 DEB in real time with AllMySat

Download on the App Store